Stations météo

réclame
Mon MeteoGroup
Landsort, Suède (2567): Température de l'air & dewpoint: 14.10.2018 15:00:00 - 20.10.2018 15:00:00 (CEST)Landsort, Suède (2567): Vitesse du vent & gusts: 14.10.2018 15:00:00 - 20.10.2018 15:00:00 (CEST)Landsort, Suède (2567): Direction du vent: 14.10.2018 15:00:00 - 20.10.2018 15:00:00 (CEST)Landsort, Suède (2567): reduced air pressure: 14.10.2018 15:00:00 - 20.10.2018 15:00:00 (CEST)Landsort, Suède (2567): visibility: 14.10.2018 15:00:00 - 20.10.2018 15:00:00 (CEST)Landsort, Suède (2567): Quantités de précipitations: 14.10.2018 15:00:00 - 20.10.2018 15:00:00 (CEST)
Date & Time tt [°C] td [°C] ff [km/h] ff [knt] fx [km/h] fx [knt] dd ppp [hPa] vv [km] rr [mm]
20.10.2018 15:00:00 - - - - - - - - - -
20.10.2018 14:00:00 8,5 6,5 3 2 9 5 E 1022,0 50 0,0
20.10.2018 13:00:00 8,1 6,3 3 2 10 5 ENE 1021,6 49 0,0
20.10.2018 12:00:00 7,9 6,3 3 2 14 8 N 1021,6 50 0,0
20.10.2018 11:00:00 7,4 6,4 6 4 19 11 NW 1021,5 43 0,0
20.10.2018 10:00:00 7,2 6,4 12 7 19 11 NNW 1021,3 38 0,0
20.10.2018 09:00:00 7,1 5,9 7 4 13 7 W 1020,8 49 14,5
20.10.2018 08:00:00 7,2 6,0 10 5 13 7 W 1020,5 50 0,0
20.10.2018 07:00:00 7,4 6,4 7 4 11 6 SW 1020,4 50 0,0
20.10.2018 06:00:00 7,2 6,5 7 4 11 6 SW 1020,5 47 0,0
20.10.2018 05:00:00 6,9 5,9 3 2 8 5 SSW 1020,4 44 0,0
20.10.2018 04:00:00 6,8 5,9 3 2 10 6 E 1020,4 44 0,0
20.10.2018 03:00:00 6,7 5,9 6 3 16 9 NW 1020,9 47 0,0
20.10.2018 02:00:00 7,1 5,9 10 5 16 9 W 1021,2 50 0,0
20.10.2018 01:00:00 7,3 5,9 10 5 12 7 W 1021,5 50 0,0
20.10.2018 00:00:00 7,0 6,3 9 5 12 6 WSW 1021,5 50 0,0
19.10.2018 23:00:00 6,7 6,2 4 2 11 6 W 1021,8 50 0,0
19.10.2018 22:00:00 6,9 6,3 8 4 13 7 WSW 1022,0 50 0,0
19.10.2018 21:00:00 7,0 6,4 7 4 16 9 WSW 1022,3 49 0,0
19.10.2018 20:00:00 7,4 6,5 11 6 19 10 WSW 1022,2 50 0,0
19.10.2018 19:00:00 7,5 6,5 13 7 20 11 WSW 1022,2 50 0,0
19.10.2018 18:00:00 7,5 6,3 16 9 20 11 WSW 1022,3 46 0,0
19.10.2018 17:00:00 7,6 5,9 14 8 18 10 WSW 1022,3 50 0,0
19.10.2018 16:00:00 8,0 5,3 13 7 18 10 WSW 1022,4 45 0,0
19.10.2018 15:00:00 7,8 5,7 13 7 18 10 WSW 1022,8 42 0,0
19.10.2018 14:00:00 7,5 5,2 12 6 15 8 W 1023,1 48 0,0
19.10.2018 13:00:00 7,4 4,8 10 6 14 8 W 1023,3 48 0,0
19.10.2018 12:00:00 6,7 4,5 11 6 15 8 W 1023,6 50 0,0
19.10.2018 11:00:00 6,3 4,1 12 6 15 8 W 1023,5 48 0,0
19.10.2018 10:00:00 7,0 4,7 4 2 15 8 WNW 1023,4 50 0,0
19.10.2018 09:00:00 6,1 4,5 9 5 19 10 NW 1023,2 50 0,0
19.10.2018 08:00:00 5,7 4,2 11 6 20 11 WNW 1023,0 50 0,0
19.10.2018 07:00:00 5,8 4,1 16 9 20 11 WNW 1022,6 50 0,0
19.10.2018 06:00:00 6,1 4,5 9 5 14 8 NW 1022,4 50 0,0
19.10.2018 05:00:00 6,4 4,5 9 5 16 9 NW 1022,3 50 0,0
19.10.2018 04:00:00 6,5 4,7 8 5 16 9 WNW 1022,2 50 0,0
19.10.2018 03:00:00 6,9 5,0 9 5 16 9 NW 1022,0 50 0,0
19.10.2018 02:00:00 7,1 4,9 10 5 21 12 NW 1022,1 50 0,0
19.10.2018 01:00:00 7,5 5,0 11 6 21 12 NW 1022,3 50 0,0
19.10.2018 00:00:00 7,7 5,0 13 7 21 11 NW 1022,0 50 0,0
18.10.2018 23:00:00 7,9 5,3 12 7 21 12 WNW 1021,7 50 0,0
18.10.2018 22:00:00 8,4 4,9 18 10 22 12 NW 1021,2 50 0,0
18.10.2018 21:00:00 8,4 5,2 14 8 23 12 NNW 1020,5 50 0,0
18.10.2018 20:00:00 8,5 5,4 16 9 29 16 WNW 1019,9 50 0,0
18.10.2018 19:00:00 9,5 5,1 17 9 29 16 NW 1019,5 50 0,0
18.10.2018 18:00:00 10,8 4,1 18 10 27 15 WNW 1018,8 50 0,0
18.10.2018 17:00:00 10,3 5,6 14 8 32 17 NW 1018,1 50 0,0
18.10.2018 16:00:00 11,6 5,7 16 9 34 18 WNW 1017,4 50 0,0
18.10.2018 15:00:00 11,6 5,3 26 14 34 18 WNW 1016,8 49 0,0
18.10.2018 14:00:00 10,6 7,7 17 9 24 13 W 1016,4 42 0,0
18.10.2018 13:00:00 10,3 8,6 16 8 24 13 W 1016,5 30 0,0
18.10.2018 12:00:00 9,0 8,9 21 11 - - W 1016,4 2,7 -
18.10.2018 11:00:00 8,9 8,6 21 11 - - WSW 1016,2 0,2 -
18.10.2018 10:00:00 8,9 8,8 16 9 25 13 W 1016,4 1,1 0,4
18.10.2018 09:00:00 8,4 8,2 16 9 25 13 W 1016,2 2,0 0,0
18.10.2018 08:00:00 8,1 7,9 16 9 26 14 WSW 1015,8 1,9 0,0
18.10.2018 07:00:00 8,9 8,5 17 9 29 16 WSW 1015,8 2,4 0,0
18.10.2018 06:00:00 9,4 9,0 20 11 29 16 SW 1015,8 3,4 0,0
18.10.2018 05:00:00 9,2 8,8 18 10 26 14 SW 1015,9 3,3 0,0
18.10.2018 04:00:00 9,0 8,7 17 9 30 16 SW 1016,1 2,7 0,0
18.10.2018 03:00:00 8,9 8,6 19 10 30 16 SW 1016,5 2,3 0,0
18.10.2018 02:00:00 9,5 9,0 22 12 29 16 SW 1016,8 2,7 0,0
18.10.2018 01:00:00 9,6 9,0 22 12 30 16 SW 1017,0 2,7 0,0
18.10.2018 00:00:00 9,6 9,0 21 11 34 18 SW 1017,3 2,7 0,0
17.10.2018 23:00:00 9,9 9,3 23 12 34 18 SW 1017,4 2,5 0,0
17.10.2018 22:00:00 10,0 9,5 22 12 32 18 SW 1017,6 2,1 0,0
17.10.2018 21:00:00 9,5 9,4 13 7 24 13 SW 1017,7 2,3 0,0
17.10.2018 20:00:00 9,5 9,3 15 8 20 11 SW 1017,9 2,9 0,0
17.10.2018 19:00:00 - - - - - - - - - -
17.10.2018 18:00:00 - - - - - - - - - -
17.10.2018 17:00:00 7,2 7,1 10 6 22 12 SSW 1018,3 0,8 0,0
17.10.2018 16:00:00 7,6 7,4 14 8 22 12 SSW 1018,4 0,2 0,0
17.10.2018 15:00:00 7,9 7,7 16 8 21 12 SW 1018,6 0,2 0,0
17.10.2018 14:00:00 9,4 9,2 15 8 21 12 SW 1018,6 0,2 0,0
17.10.2018 13:00:00 9,2 9,1 14 8 22 12 WSW 1018,6 0,1 0,0
17.10.2018 12:00:00 10,3 10,1 15 8 22 12 SW 1018,5 2,3 0,0
17.10.2018 11:00:00 9,5 9,3 14 8 21 12 SW 1018,7 3,0 0,0
17.10.2018 10:00:00 8,3 8,2 14 7 19 10 WSW 1018,7 3,5 0,0
17.10.2018 09:00:00 8,0 7,8 14 8 19 10 WSW 1018,4 2,5 0,0
17.10.2018 08:00:00 8,0 7,8 11 6 19 10 WSW 1018,2 1,6 0,0
17.10.2018 07:00:00 8,4 8,3 13 7 20 11 SSW 1017,7 1,4 0,0
17.10.2018 06:00:00 8,0 7,9 12 7 20 11 WSW 1018,0 0,2 0,0
17.10.2018 05:00:00 8,9 8,7 11 6 14 8 S 1017,9 0,6 0,0
17.10.2018 04:00:00 8,7 8,5 8 5 16 9 SSE 1018,1 0,8 0,0
17.10.2018 03:00:00 8,7 8,6 14 8 16 9 S 1018,4 0,8 0,0
17.10.2018 02:00:00 8,5 8,3 10 6 16 9 SE 1018,7 0,2 0,0
17.10.2018 01:00:00 8,6 8,4 5 3 16 9 SSE 1019,1 0,2 0,0
17.10.2018 00:00:00 8,5 8,3 11 6 20 11 ESE 1019,3 0,1 0,0
16.10.2018 23:00:00 8,5 8,4 11 6 20 11 ESE 1019,7 0,1 0,0
16.10.2018 22:00:00 8,2 8,1 14 8 21 11 E 1020,0 0,2 0,0
16.10.2018 21:00:00 8,2 8,0 16 9 22 12 ENE 1020,1 0,2 0,0
16.10.2018 20:00:00 8,3 8,1 19 11 29 16 ENE 1020,2 0,3 0,0
16.10.2018 19:00:00 8,3 8,2 19 10 32 17 E 1020,1 0,4 0,0
16.10.2018 18:00:00 8,4 8,2 26 14 32 17 E 1019,4 0,5 0,0
16.10.2018 17:00:00 8,8 8,2 24 13 28 15 E 1019,8 36 0,0
16.10.2018 16:00:00 9,1 8,3 23 13 26 14 E 1019,6 50 0,0
16.10.2018 15:00:00 9,2 8,2 18 10 27 15 E 1019,4 13 0,0
16.10.2018 14:00:00 9,3 8,3 20 11 27 15 E 1019,2 11 0,0
16.10.2018 13:00:00 9,2 8,0 17 9 21 11 ENE 1018,9 10 0,0
16.10.2018 12:00:00 9,6 8,7 14 8 16 9 NE 1018,6 8 0,0
16.10.2018 11:00:00 9,9 8,5 9 5 16 9 NE 1018,4 12 0,0
16.10.2018 10:00:00 9,6 8,5 6 3 14 8 N 1017,8 12 0,0
16.10.2018 09:00:00 7,5 7,1 10 5 15 8 WNW 1017,2 5 0,0
16.10.2018 08:00:00 7,4 7,0 5 3 19 10 W 1016,4 6 0,0
16.10.2018 07:00:00 7,2 6,7 12 6 22 12 W 1015,9 6 0,0
16.10.2018 06:00:00 7,2 6,6 13 7 22 12 W 1015,9 7 0,0
16.10.2018 05:00:00 7,6 6,9 16 9 23 12 SW 1015,2 10 0,0
16.10.2018 04:00:00 7,6 6,9 16 8 28 15 SW 1015,1 8 0,0
16.10.2018 03:00:00 7,9 7,2 18 10 28 15 SW 1015,0 9 0,0
16.10.2018 02:00:00 8,3 7,4 21 12 31 17 SW 1014,9 10 0,0
16.10.2018 01:00:00 8,1 7,2 19 11 34 19 WSW 1014,7 10 0,0
16.10.2018 00:00:00 8,9 7,7 21 11 40 21 SW 1014,6 12 0,0
15.10.2018 23:00:00 9,0 7,7 23 12 40 21 SW 1014,7 11 0,0
15.10.2018 22:00:00 9,3 8,2 30 16 39 21 SSW 1014,6 10 0,0
15.10.2018 21:00:00 9,2 8,2 29 15 39 21 SSW 1014,7 9 0,0
15.10.2018 20:00:00 9,4 8,1 30 16 39 21 SSW 1014,6 10 0,0
15.10.2018 19:00:00 9,4 8,2 28 15 38 20 SSW 1014,7 10 0,0
15.10.2018 18:00:00 9,5 8,4 30 16 37 20 SSW 1014,6 9 0,0
15.10.2018 17:00:00 9,7 8,6 29 15 37 20 SSW 1014,7 9 0,0
15.10.2018 16:00:00 10,0 8,7 26 14 32 18 S 1014,9 9 0,0
15.10.2018 15:00:00 10,2 8,6 22 12 28 15 SSW 1015,3 9 0,0
15.10.2018 14:00:00 10,5 8,6 17 9 29 16 SSW 1015,7 10 0,0
15.10.2018 13:00:00 10,6 8,6 17 9 39 21 SSW 1015,7 10 0,0
15.10.2018 12:00:00 10,2 8,6 23 12 40 22 SSW 1015,8 9 0,0
15.10.2018 11:00:00 9,9 8,6 30 16 40 22 SSW 1015,6 9 0,0
15.10.2018 10:00:00 9,6 8,5 26 14 35 19 SSW 1015,5 7 0,0
15.10.2018 09:00:00 9,2 8,3 23 13 35 19 SSW 1015,8 7 0,0
15.10.2018 08:00:00 9,0 8,3 26 14 36 20 SSW 1015,3 6 0,0
15.10.2018 07:00:00 9,2 8,2 26 14 42 23 SSW 1015,1 8 0,0
15.10.2018 06:00:00 9,4 8,3 26 14 42 23 SSW 1015,0 8 0,0
15.10.2018 05:00:00 9,4 8,4 30 16 42 23 SSW 1015,0 8 0,0
15.10.2018 04:00:00 9,6 8,4 32 17 41 22 SSW 1014,8 9 0,0
15.10.2018 03:00:00 9,6 8,5 31 17 41 22 SSW 1014,8 9 0,0
15.10.2018 02:00:00 9,8 8,6 29 16 43 23 SSW 1015,1 10 0,0
15.10.2018 01:00:00 9,9 8,4 21 12 46 25 SW 1015,7 11 0,0
15.10.2018 00:00:00 10,6 8,8 31 17 46 25 S 1015,1 12 0,0
14.10.2018 23:00:00 10,9 8,9 33 18 45 25 S 1015,3 12 0,0
14.10.2018 22:00:00 10,2 8,9 27 15 35 19 S 1015,7 9 0,0
14.10.2018 21:00:00 10,0 8,6 17 9 31 17 SSW 1016,5 9 0,0
14.10.2018 20:00:00 9,2 8,4 8 4 29 16 W 1016,9 5 0,0
14.10.2018 19:00:00 10,0 8,9 20 11 30 16 S 1016,4 8 0,0
14.10.2018 18:00:00 10,2 9,0 24 13 30 16 S 1016,8 8 0,0
14.10.2018 17:00:00 9,8 8,9 22 12 40 22 SSE 1017,3 5 0,0
14.10.2018 16:00:00 10,6 8,8 23 12 40 22 S 1018,0 9 0,0
14.10.2018 15:00:00 11,0 9,1 26 14 34 18 S 1018,6 8 0,0

tt = Température de l'air
td = dewpoint
ff = Vitesse du vent
fx = gusts
dd = Direction du vent
ppp = reduced air pressure
vv = visibility
rr = Quantités de précipitations

stations d'obs. à proximité